Regional Weather Roundup
Issued by NWS Charleston, SC

Current Version | Previous Version | Graphics & Text | Print | Product List | Glossary On
Versions: 1 2 3 4 5 6 7 8 9 10 11 12 13 14 15 16 17 18 19 20 21 22 23 24 25 26 27 28 29 30 31 32 33 34 35 36 37 38 39 40 41 42 43 44 45 46 47 48 49 50
000 ASUS42 KCHS 240127 RWRCHS REGIONAL WEATHER ROUNDUP NATIONAL WEATHER SERVICE CHARLESTON SC 800 PM EST THU NOV 23 2017 NOTE: "FAIR" INDICATES FEW OR NO CLOUDS BELOW 12,000 FEET WITH NO SIGNIFICANT WEATHER AND/OR OBSTRUCTIONS TO VISIBILITY. NOT ALL STATIONS ARE QUALITY CONTROLLED. USE DATA WITH CAUTION... ESPECIALLY DEWPOINT OBSERVATIONS. SCZ027-030-031-034>040-042>050-240200- ...SOUTHEAST SOUTH CAROLINA... CITY SKY/WX TMP DP RH WIND PRES REMARKS N CHARLESTON CLOUDY 45 44 97 N9 30.00S WATERFRONT PRK N/A 47 45 93 N9 29.85S JOHNS ISLAND CLOUDY 46 45 93 N5 30.00S PINOPOLIS N/A 46 45 93 NE13 29.94S MONCKS CORNER FAIR 45 41 87 NE6 30.01S SUMMERVILLE CLOUDY 45 43 93 CALM 30.02F BEAUFORT MCAS CLOUDY 48 46 93 N10 30.01R BEAUFORT ARPT CLOUDY 46 45 93 N9 30.01R HILTON HEAD IS CLOUDY 48 46 93 N13 30.01R WALTERBORO CLOUDY 45 41 87 CALM 30.02R ALLENDALE CLOUDY 46 39 76 N5 30.02R ...SOUTHERN MIDLANDS AND PEE DEE... CITY SKY/WX TMP DP RH WIND PRES REMARKS GEORGETOWN DRIZZLE 45 43 93 NE8 30.02S KINGSTREE FAIR 45 36 70 NE3 30.03R ORANGEBURG CLOUDY 46 36 68 NE6 30.02S BARNWELL N/A 45 41 87 CALM 30.03R AIKEN FAIR 41 37 87 CALM 30.06R MANNING FAIR 45 36 70 MISG 30.02S COLUMBIA PTCLDY 47 40 76 CALM 30.03S SUMTER PTCLDY 43 35 73 NE5 30.02S FLORENCE CLOUDY 45 36 70 NE7 30.05F MYRTLE BEACH CLOUDY 47 39 74 NE9 30.03F N MYRTLE BEACH CLOUDY 47 39 74 NE9 30.02F $$ GAZ063-065-086>088-099>101-113>116-118-119-134>141-150-240200- ...SOUTHEAST GEORGIA... CITY SKY/WX TMP DP RH WIND PRES REMARKS SAVANNAH ARPT CLOUDY 48 46 93 N7 30.01R HUNTER AAF CLOUDY 48 46 93 NE8 29.96F FORT STEWART CLOUDY 49 46 90 N7 29.97S STATESBORO CLOUDY 49 39 68 CALM 30.02R SYLVANIA CLOUDY 49 43 78 NE6 30.03S CLAXTON CLOUDY 52 46 80 N7 30.01R ...CSRA...CENTRAL AND FAR SOUTHEAST GEORGIA... CITY SKY/WX TMP DP RH WIND PRES REMARKS THOMSON CLEAR 42 39 91 CALM 30.08R AUGUSTA-BUSH MOCLDY 44 41 89 CALM 30.03R AUGUSTA-DANIEL CLEAR 51 40 65 E5 30.03R SWAINSBORO FAIR 48 45 87 NE5 30.03R VIDALIA CLOUDY 52 46 82 NE6 30.01R EASTMAN CLOUDY 55 38 54 NE5 30.04R HAZLEHURST CLOUDY 55 43 63 NE3 29.99R ALMA CLOUDY 54 50 86 VRB3 29.97S WAYCROSS CLOUDY 54 51 90 NE6 29.98R JESUP CLOUDY 54 48 82 CALM 29.99R BAXLEY CLOUDY 52 50 93 NE7 29.99S BRUNSWICK CLOUDY 52 50 93 N9 29.97R SAINT SIMONS CLOUDY 55 54 96 N13 29.94S $$ SCZ027-028-034-036>038-045-046-048>050-GAZ119-141-240200- ...LAKE AND SUPPLEMENTAL COASTAL OBSERVATIONS... STATION/POSITION TIME TEMP WIND PRES WAVE SWELL AIR SEA DIR/SP/G HT/PER HT/PER/DIR (UTC) (F) (DEG/KT/KT) (MB) (FT/S) (FT/S/D) WINYAH BAY 0030 45 30/ 8 1016.0F LAKE MURRAY 0120 49 70/ 2/ 4 1016.3 ACE BASIN NERRS 0045 46 340/ 3 1016.0S FORT PULASKI 0100 50 61 20/ 9/ 11 1016.0 SAPELO ISLAND 0100 53 20/ 13 1014.0 $$ ANZ835-935-AMZ111-154-330-350-352-354-370-450-454-472-240200- ...C-MAN AND BUOY OBSERVATIONS... STATION/POSITION TIME TEMP WIND PRES WAVE SWELL AIR SEA DIR/SP/G HT/PER HT/PER/DIR (UTC) (F) (DEG/KT/KT) (MB) (FT/S) (FT/S/D) BUOY 41004 0110 65 75 40/ 21/ 25 1013.7 BUOY 41008 0050 59 67 20/ 21/ 25 1013.3R 6/ 6 2/110/ 9 FOLLY BEACH CMAN 0100 48 20/ 14/ 17 1016.1R CAPERS NEARSHORE 0108 47 61 20/ 17/ 23 1015.2R FRIPP NEARSHORE 0108 49 61 30/ 12/ 27 1015.2R STATION/POSITION TIME TEMP WIND PRES WAVE SWELL AIR SEA DIR/SP/G HT/PER HT/PER/DIR (UTC) (F) (DEG/KT/KT) (MB) (FT/S) (FT/S/D) 5E ST. MARYS GA 0100 67 N/A 6/ 6 FRYING PAN BUOY 0110 59 72 40/ 16/ 21 1015.7 BUOY 41025 0110 57 71 20/ 12/ 16 1017.2 CAPE LOOKOUT NC 0100 10/ 11/ 12 1017.3F BUOY 41002 0050 71 77 90/ 19/ 23 1012.5S 8/10 5/100/10 BUOY 41010 NOT AVBL ST AUGUSTINE FL 0100 68 68 20/ 19/ 21 1011.2R $$

USA.gov is the U.S. government's official web portal to all federal, state and local government web resources and services.